Time,TemperatureF,DewpointF,PressureIn,WindDirection,WindDirectionDegrees,WindSpeedMPH,WindSpeedGustMPH,Humidity,HourlyPrecipIn,Conditions,Clouds,dailyrainin,SoftwareType,DateUTC
2013-08-23 00:01:00,82.4,72.9,29.98,SE,138,3.5,3.5,73,0.00,CLR,,0.00,WeatherDisplay:10.37,2013-08-23 05:01:00,
2013-08-23 00:06:00,82.3,72.8,29.98,SE,126,4.6,4.6,73,0.00,CLR,,0.00,WeatherDisplay:10.37,2013-08-23 05:06:00,
2013-08-23 00:11:00,82.2,72.7,29.97,ESE,104,4.6,4.6,73,0.00,CLR,,0.00,WeatherDisplay:10.37,2013-08-23 05:11:00,
2013-08-23 00:16:00,82.1,73.0,29.97,East,88,5.8,5.8,74,0.00,CLR,,0.00,WeatherDisplay:10.37,2013-08-23 05:16:00,
2013-08-23 00:21:00,81.9,72.8,29.98,East,80,5.8,5.8,74,0.00,CLR,,0.00,WeatherDisplay:10.37,2013-08-23 05:21:00,
2013-08-23 00:26:00,81.7,73.0,29.98,East,94,6.9,6.9,75,0.00,CLR,,0.00,WeatherDisplay:10.37,2013-08-23 05:26:00,
2013-08-23 00:31:00,81.6,72.9,29.98,East,88,4.6,4.6,75,0.00,CLR,,0.00,WeatherDisplay:10.37,2013-08-23 05:31:00,
2013-08-23 00:36:00,81.4,72.7,29.98,East,86,4.6,4.6,75,0.00,CLR,,0.00,WeatherDisplay:10.37,2013-08-23 05:36:00,
2013-08-23 00:41:00,81.2,72.9,29.98,East,97,6.9,6.9,76,0.00,CLR,,0.00,WeatherDisplay:10.37,2013-08-23 05:41:00,
2013-08-23 00:47:00,81.1,72.8,29.98,East,96,4.6,4.6,76,0.00,CLR,,0.00,WeatherDisplay:10.37,2013-08-23 05:47:00,
2013-08-23 00:52:00,81.0,73.1,29.98,East,96,6.9,6.9,77,0.00,CLR,,0.00,WeatherDisplay:10.37,2013-08-23 05:52:00,
2013-08-23 00:56:00,80.9,73.0,29.98,SE,127,4.6,4.6,77,0.00,CLR,,0.00,WeatherDisplay:10.37,2013-08-23 05:56:00,
2013-08-23 01:01:00,80.8,72.9,29.98,ENE,76,3.5,3.5,77,0.00,CLR,,0.00,WeatherDisplay:10.37,2013-08-23 06:01:00,
2013-08-23 01:06:00,80.7,72.8,29.98,South,172,3.5,3.5,77,0.00,CLR,,0.00,WeatherDisplay:10.37,2013-08-23 06:06:00,
2013-08-23 01:11:00,80.5,73.0,29.98,ESE,112,1.2,1.2,78,0.00,CLR,,0.00,WeatherDisplay:10.37,2013-08-23 06:11:00,
2013-08-23 01:16:00,80.4,72.9,29.98,East,101,2.3,0.0,78,0.00,CLR,,0.00,WeatherDisplay:10.37,2013-08-23 06:16:00,
2013-08-23 01:21:00,80.2,72.7,29.98,ESE,117,1.2,0.0,78,0.00,CLR,,0.00,WeatherDisplay:10.37,2013-08-23 06:21:00,
2013-08-23 01:26:00,80.0,72.5,29.98,ESE,121,1.2,1.2,78,0.00,CLR,,0.00,WeatherDisplay:10.37,2013-08-23 06:26:00,
2013-08-23 01:32:00,79.9,72.8,29.98,East,96,2.3,2.3,79,0.00,CLR,,0.00,WeatherDisplay:10.37,2013-08-23 06:32:00,
2013-08-23 01:37:00,79.7,72.6,29.98,SE,134,1.2,0.0,79,0.00,CLR,,0.00,WeatherDisplay:10.37,2013-08-23 06:37:00,
2013-08-23 01:42:00,79.6,72.5,29.97,East,96,2.3,2.3,79,0.00,CLR,,0.00,WeatherDisplay:10.37,2013-08-23 06:42:00,
2013-08-23 01:47:00,79.5,72.4,29.97,East,94,1.2,1.2,79,0.00,CLR,,0.00,WeatherDisplay:10.37,2013-08-23 06:47:00,
2013-08-23 01:52:00,79.2,72.1,29.97,East,100,2.3,2.3,79,0.00,CLR,,0.00,WeatherDisplay:10.37,2013-08-23 06:52:00,
2013-08-23 01:57:00,78.8,72.1,29.98,East,98,2.3,2.3,80,0.00,CLR,,0.00,WeatherDisplay:10.37,2013-08-23 06:57:00,
2013-08-23 02:02:00,78.6,72.3,29.98,ENE,75,2.3,2.3,81,0.00,CLR,,0.00,WeatherDisplay:10.37,2013-08-23 07:02:00,
2013-08-23 02:07:00,78.5,72.2,29.98,ESE,102,2.3,2.3,81,0.00,CLR,,0.00,WeatherDisplay:10.37,2013-08-23 07:07:00,
2013-08-23 02:12:00,78.5,72.2,29.98,ESE,111,0.0,0.0,81,0.00,CLR,,0.00,WeatherDisplay:10.37,2013-08-23 07:12:00,
2013-08-23 02:17:00,78.4,72.4,29.98,ESE,112,0.0,0.0,82,0.00,CLR,,0.00,WeatherDisplay:10.37,2013-08-23 07:17:00,
2013-08-23 02:22:00,78.4,72.4,29.97,SSE,165,2.3,2.3,82,0.00,CLR,,0.00,WeatherDisplay:10.37,2013-08-23 07:22:00,
2013-08-23 02:27:00,78.4,72.4,29.97,ESE,117,2.3,2.3,82,0.00,CLR,,0.00,WeatherDisplay:10.37,2013-08-23 07:27:00,
2013-08-23 02:32:00,78.4,72.4,29.97,ESE,108,1.2,1.2,82,0.00,CLR,,0.00,WeatherDisplay:10.37,2013-08-23 07:32:00,
2013-08-23 02:37:00,78.3,72.3,29.97,SSE,148,3.5,3.5,82,0.00,CLR,,0.00,WeatherDisplay:10.37,2013-08-23 07:37:00,
2013-08-23 02:42:00,78.1,72.5,29.97,SE,125,0.0,0.0,83,0.00,CLR,,0.00,WeatherDisplay:10.37,2013-08-23 07:42:00,
2013-08-23 02:47:00,78.0,72.4,29.97,SE,128,0.0,0.0,83,0.00,CLR,,0.00,WeatherDisplay:10.37,2013-08-23 07:47:00,
2013-08-23 02:52:00,77.7,72.1,29.97,SE,128,0.0,0.0,83,0.00,CLR,,0.00,WeatherDisplay:10.37,2013-08-23 07:52:00,
2013-08-23 02:57:00,77.6,72.4,29.97,SE,128,1.2,0.0,84,0.00,CLR,,0.00,WeatherDisplay:10.37,2013-08-23 07:57:00,
2013-08-23 03:02:00,77.4,72.2,29.96,SE,128,0.0,0.0,84,0.00,CLR,,0.00,WeatherDisplay:10.37,2013-08-23 08:02:00,
2013-08-23 03:07:00,77.4,72.2,29.97,SE,128,0.0,0.0,84,0.00,CLR,,0.00,WeatherDisplay:10.37,2013-08-23 08:07:00,
2013-08-23 03:12:00,77.3,72.4,29.97,SE,128,0.0,0.0,85,0.00,CLR,,0.00,WeatherDisplay:10.37,2013-08-23 08:12:00,
2013-08-23 03:17:00,77.2,72.3,29.97,SE,128,0.0,0.0,85,0.00,CLR,,0.00,WeatherDisplay:10.37,2013-08-23 08:17:00,
2013-08-23 03:22:00,77.1,72.2,29.97,SE,128,0.0,0.0,85,0.00,CLR,,0.00,WeatherDisplay:10.37,2013-08-23 08:22:00,
2013-08-23 03:27:00,77.0,72.1,29.97,SE,128,0.0,0.0,85,0.00,CLR,,0.00,WeatherDisplay:10.37,2013-08-23 08:27:00,
2013-08-23 03:32:00,77.0,72.1,29.97,SE,128,0.0,0.0,85,0.00,CLR,,0.00,WeatherDisplay:10.37,2013-08-23 08:32:00,
2013-08-23 03:37:00,76.8,71.9,29.97,SE,128,0.0,0.0,85,0.00,CLR,,0.00,WeatherDisplay:10.37,2013-08-23 08:37:00,
2013-08-23 03:42:00,76.7,72.2,29.97,SE,128,0.0,0.0,86,0.00,CLR,,0.00,WeatherDisplay:10.37,2013-08-23 08:42:00,
2013-08-23 03:47:00,76.7,72.2,29.97,SSE,157,2.3,0.0,86,0.00,CLR,,0.00,WeatherDisplay:10.37,2013-08-23 08:47:00,
2013-08-23 03:52:00,76.7,72.2,29.97,SSE,157,0.0,0.0,86,0.00,CLR,,0.00,WeatherDisplay:10.37,2013-08-23 08:52:00,
2013-08-23 03:57:00,76.8,72.3,29.97,SSE,157,0.0,0.0,86,0.00,CLR,,0.00,WeatherDisplay:10.37,2013-08-23 08:57:00,
2013-08-23 04:02:00,76.6,72.1,29.97,SSE,157,0.0,0.0,86,0.00,CLR,,0.00,WeatherDisplay:10.37,2013-08-23 09:02:00,
2013-08-23 04:07:00,76.6,72.1,29.96,SSE,156,0.0,0.0,86,0.00,CLR,,0.00,WeatherDisplay:10.37,2013-08-23 09:07:00,
2013-08-23 04:12:00,76.5,72.3,29.96,SSE,157,0.0,0.0,87,0.00,CLR,,0.00,WeatherDisplay:10.37,2013-08-23 09:12:00,
2013-08-23 04:17:00,76.4,71.9,29.96,SSE,157,0.0,0.0,86,0.00,CLR,,0.00,WeatherDisplay:10.37,2013-08-23 09:17:00,
2013-08-23 04:22:00,76.2,72.0,29.96,WSW,252,0.0,0.4,87,0.00,CLR,,0.00,WeatherDisplay:10.37,2013-08-23 09:22:00,
2013-08-23 04:27:00,75.8,71.3,29.96,WSW,253,0.0,0.0,86,0.00,CLR,,0.00,WeatherDisplay:10.37,2013-08-23 09:27:00,
2013-08-23 04:32:00,75.5,71.4,29.96,WSW,253,0.0,0.0,87,0.00,CLR,,0.00,WeatherDisplay:10.37,2013-08-23 09:32:00,
2013-08-23 04:37:00,75.2,71.1,29.96,WSW,252,0.0,0.0,87,0.00,CLR,,0.00,WeatherDisplay:10.37,2013-08-23 09:37:00,
2013-08-23 04:42:00,75.0,70.9,29.96,WSW,253,0.0,0.0,87,0.00,CLR,,0.00,WeatherDisplay:10.37,2013-08-23 09:42:00,
2013-08-23 04:47:00,75.0,71.2,29.96,WSW,253,0.0,0.0,88,0.00,CLR,,0.00,WeatherDisplay:10.37,2013-08-23 09:47:00,
2013-08-23 04:52:00,74.9,71.1,29.97,WSW,253,0.0,0.0,88,0.00,CLR,,0.00,WeatherDisplay:10.37,2013-08-23 09:52:00,
2013-08-23 04:57:00,74.8,71.3,29.97,WSW,253,0.0,0.0,89,0.00,CLR,,0.00,WeatherDisplay:10.37,2013-08-23 09:57:00,
2013-08-23 05:02:00,74.9,71.4,29.97,WSW,253,0.0,0.0,89,0.00,CLR,,0.00,WeatherDisplay:10.37,2013-08-23 10:02:00,
2013-08-23 05:07:00,75.0,71.5,29.97,WSW,253,0.0,0.0,89,0.00,CLR,,0.00,WeatherDisplay:10.37,2013-08-23 10:07:00,
2013-08-23 05:12:00,75.0,71.9,29.97,ESE,122,0.0,0.0,90,0.00,CLR,,0.00,WeatherDisplay:10.37,2013-08-23 10:12:00,
2013-08-23 05:17:00,75.3,72.2,29.96,ESE,123,0.0,0.0,90,0.00,CLR,,0.00,WeatherDisplay:10.37,2013-08-23 10:17:00,
2013-08-23 05:22:00,75.5,72.4,29.96,ESE,122,0.0,0.0,90,0.00,CLR,,0.00,WeatherDisplay:10.37,2013-08-23 10:22:00,
2013-08-23 05:27:00,75.6,72.1,29.96,ESE,122,0.0,0.0,89,0.00,CLR,,0.00,WeatherDisplay:10.37,2013-08-23 10:27:00,
2013-08-23 05:32:00,75.6,72.1,29.96,ESE,122,0.0,0.0,89,0.00,CLR,,0.00,WeatherDisplay:10.37,2013-08-23 10:32:00,
2013-08-23 05:37:00,75.5,72.0,29.96,ESE,121,0.0,0.0,89,0.00,CLR,,0.00,WeatherDisplay:10.37,2013-08-23 10:37:00,
2013-08-23 05:42:00,75.5,72.0,29.97,ESE,105,0.0,0.0,89,0.00,CLR,,0.00,WeatherDisplay:10.37,2013-08-23 10:42:00,
2013-08-23 05:47:00,75.5,72.0,29.96,ESE,105,0.0,0.0,89,0.00,CLR,,0.00,WeatherDisplay:10.37,2013-08-23 10:47:00,
2013-08-23 05:52:00,75.5,72.4,29.97,ESE,105,0.0,0.0,90,0.00,CLR,,0.00,WeatherDisplay:10.37,2013-08-23 10:52:00,
2013-08-23 05:57:00,75.4,72.3,29.97,ESE,105,0.0,0.0,90,0.00,CLR,,0.00,WeatherDisplay:10.37,2013-08-23 10:57:00,
2013-08-23 06:02:00,75.4,72.3,29.97,ESE,105,0.0,0.0,90,0.00,CLR,,0.00,WeatherDisplay:10.37,2013-08-23 11:02:00,
2013-08-23 06:07:00,75.2,72.1,29.97,ESE,105,0.0,0.0,90,0.00,CLR,,0.00,WeatherDisplay:10.37,2013-08-23 11:07:00,
2013-08-23 06:12:00,75.1,72.0,29.97,ESE,105,0.0,0.0,90,0.00,CLR,,0.00,WeatherDisplay:10.37,2013-08-23 11:12:00,
2013-08-23 06:17:00,74.8,71.7,29.97,ESE,105,0.0,0.0,90,0.00,CLR,,0.00,WeatherDisplay:10.37,2013-08-23 11:17:00,
2013-08-23 06:22:00,75.0,72.2,29.97,ESE,105,0.0,0.0,91,0.00,CLR,,0.00,WeatherDisplay:10.37,2013-08-23 11:22:00,
2013-08-23 06:27:00,75.1,72.3,29.98,ESE,105,0.0,0.0,91,0.00,CLR,,0.00,WeatherDisplay:10.37,2013-08-23 11:27:00,
2013-08-23 06:32:00,75.1,72.3,29.98,ESE,108,0.0,0.0,91,0.00,CLR,,0.00,WeatherDisplay:10.37,2013-08-23 11:32:00,
2013-08-23 06:37:00,74.9,72.1,29.98,ESE,108,0.0,0.0,91,0.00,CLR,,0.00,WeatherDisplay:10.37,2013-08-23 11:37:00,
2013-08-23 06:42:00,74.8,72.0,29.98,ESE,107,0.0,0.0,91,0.00,CLR,,0.00,WeatherDisplay:10.37,2013-08-23 11:42:00,
2013-08-23 06:47:00,74.6,71.8,29.98,ESE,108,0.0,0.0,91,0.00,CLR,,0.00,WeatherDisplay:10.37,2013-08-23 11:47:00,
2013-08-23 06:52:00,74.6,71.8,29.98,ESE,107,0.0,0.0,91,0.00,CLR,,0.00,WeatherDisplay:10.37,2013-08-23 11:52:00,
2013-08-23 06:57:00,74.7,72.2,29.98,ESE,106,0.0,0.0,92,0.00,CLR,,0.00,WeatherDisplay:10.37,2013-08-23 11:57:00,
2013-08-23 07:02:00,74.8,72.0,29.98,ESE,107,0.0,0.0,91,0.00,CLR,,0.00,WeatherDisplay:10.37,2013-08-23 12:02:00,
2013-08-23 07:07:00,74.6,71.8,29.98,ESE,106,0.0,0.0,91,0.00,CLR,,0.00,WeatherDisplay:10.37,2013-08-23 12:07:00,
2013-08-23 07:12:00,74.4,71.6,29.98,ESE,107,0.0,0.0,91,0.00,CLR,,0.00,WeatherDisplay:10.37,2013-08-23 12:12:00,
2013-08-23 07:17:00,74.3,71.5,29.99,ESE,106,0.0,0.0,91,0.00,CLR,,0.00,WeatherDisplay:10.37,2013-08-23 12:17:00,
2013-08-23 07:22:00,74.3,71.8,29.99,ESE,106,0.0,0.0,92,0.00,CLR,,0.00,WeatherDisplay:10.37,2013-08-23 12:22:00,
2013-08-23 07:27:00,74.4,71.9,29.99,ESE,106,0.0,0.0,92,0.00,CLR,,0.00,WeatherDisplay:10.37,2013-08-23 12:27:00,
2013-08-23 07:32:00,74.4,71.9,29.99,ESE,106,0.0,0.0,92,0.00,CLR,,0.00,WeatherDisplay:10.37,2013-08-23 12:32:00,
2013-08-23 07:37:00,74.4,71.9,29.99,ESE,107,0.0,0.0,92,0.00,CLR,,0.00,WeatherDisplay:10.37,2013-08-23 12:37:00,
2013-08-23 07:42:00,74.7,72.5,29.99,ESE,106,0.0,0.0,93,0.00,CLR,,0.00,WeatherDisplay:10.37,2013-08-23 12:42:00,
2013-08-23 07:47:00,74.8,72.6,29.99,ESE,107,0.0,0.0,93,0.00,CLR,,0.00,WeatherDisplay:10.37,2013-08-23 12:47:00,
2013-08-23 07:52:00,75.0,72.8,29.99,ESE,106,0.0,0.0,93,0.00,CLR,,0.00,WeatherDisplay:10.37,2013-08-23 12:52:00,
2013-08-23 07:57:00,75.1,72.9,29.99,ESE,106,0.0,0.0,93,0.00,CLR,,0.00,WeatherDisplay:10.37,2013-08-23 12:57:00,
2013-08-23 08:02:00,75.3,73.1,30.00,ESE,106,0.0,0.0,93,0.00,CLR,,0.00,WeatherDisplay:10.37,2013-08-23 13:02:00,
2013-08-23 08:07:00,75.7,73.2,30.00,ESE,107,0.0,0.0,92,0.00,CLR,,0.00,WeatherDisplay:10.37,2013-08-23 13:07:00,
2013-08-23 08:12:00,76.3,73.8,30.00,ESE,107,0.0,0.0,92,0.00,CLR,,0.00,WeatherDisplay:10.37,2013-08-23 13:12:00,
2013-08-23 08:17:00,77.0,74.5,30.00,ESE,106,0.0,0.0,92,0.00,CLR,,0.00,WeatherDisplay:10.37,2013-08-23 13:17:00,
2013-08-23 08:22:00,77.7,74.9,30.00,ESE,106,0.0,0.0,91,0.00,CLR,,0.00,WeatherDisplay:10.37,2013-08-23 13:22:00,
2013-08-23 08:27:00,78.5,75.3,30.00,ESE,106,0.0,0.0,90,0.00,CLR,,0.00,WeatherDisplay:10.37,2013-08-23 13:27:00,
2013-08-23 08:32:00,79.6,76.1,30.00,ESE,107,0.0,0.0,89,0.00,CLR,,0.00,WeatherDisplay:10.37,2013-08-23 13:32:00,
2013-08-23 08:37:00,80.8,76.2,30.00,ESE,107,0.0,0.0,86,0.00,CLR,,0.00,WeatherDisplay:10.37,2013-08-23 13:37:00,
2013-08-23 08:42:00,81.8,76.5,30.00,ESE,105,0.0,0.0,84,0.00,CLR,,0.00,WeatherDisplay:10.37,2013-08-23 13:42:00,
2013-08-23 08:47:00,82.5,76.1,30.01,NNE,30,1.2,0.0,81,0.00,CLR,,0.00,WeatherDisplay:10.37,2013-08-23 13:47:00,
2013-08-23 08:52:00,82.8,75.6,30.01,East,86,3.5,3.5,79,0.00,CLR,,0.00,WeatherDisplay:10.37,2013-08-23 13:52:00,
2013-08-23 08:57:00,82.6,75.4,30.01,ESE,116,2.3,2.3,79,0.00,CLR,,0.00,WeatherDisplay:10.37,2013-08-23 13:57:00,
2013-08-23 09:02:00,82.6,75.8,30.01,SE,126,1.2,1.2,80,0.00,CLR,,0.00,WeatherDisplay:10.37,2013-08-23 14:02:00,
2013-08-23 09:07:00,83.3,76.1,30.01,ESE,102,2.3,2.3,79,0.00,CLR,,0.00,WeatherDisplay:10.37,2013-08-23 14:07:00,
2013-08-23 09:12:00,82.9,74.9,30.01,East,94,2.3,2.3,77,0.00,CLR,,0.00,WeatherDisplay:10.37,2013-08-23 14:12:00,
2013-08-23 09:17:00,82.2,75.0,30.01,East,96,1.2,1.2,79,0.00,CLR,,0.00,WeatherDisplay:10.37,2013-08-23 14:17:00,
2013-08-23 09:22:00,81.8,74.3,30.01,ESE,122,2.3,2.3,78,0.00,CLR,,0.00,WeatherDisplay:10.37,2013-08-23 14:22:00,
2013-08-23 09:27:00,81.6,74.1,30.01,ESE,104,1.2,0.0,78,0.00,CLR,,0.00,WeatherDisplay:10.37,2013-08-23 14:27:00,
2013-08-23 09:32:00,81.5,74.4,30.00,ESE,115,0.0,0.0,79,0.00,CLR,,0.00,WeatherDisplay:10.37,2013-08-23 14:32:00,
2013-08-23 09:37:00,82.0,74.5,30.00,ESE,110,1.2,1.2,78,0.00,CLR,,0.00,WeatherDisplay:10.37,2013-08-23 14:37:00,
2013-08-23 09:42:00,82.8,74.5,30.00,ESE,123,1.2,1.3,76,0.00,CLR,,0.00,WeatherDisplay:10.37,2013-08-23 14:42:00,
2013-08-23 09:47:00,82.8,74.1,30.00,East,93,1.2,1.2,75,0.00,CLR,,0.00,WeatherDisplay:10.37,2013-08-23 14:47:00,
2013-08-23 09:52:00,83.0,74.3,30.00,East,101,1.2,0.0,75,0.00,CLR,,0.00,WeatherDisplay:10.37,2013-08-23 14:52:00,
2013-08-23 09:57:00,83.4,74.2,30.00,WNW,283,1.2,1.2,74,0.00,CLR,,0.00,WeatherDisplay:10.37,2013-08-23 14:57:00,
2013-08-23 10:02:00,83.5,74.7,30.00,WSW,257,2.3,2.3,75,0.00,CLR,,0.00,WeatherDisplay:10.37,2013-08-23 15:02:00,
2013-08-23 10:07:00,84.5,75.3,30.00,ESE,110,2.0,2.0,74,0.00,CLR,,0.00,WeatherDisplay:10.37,2013-08-23 15:07:00,
2013-08-23 10:12:00,85.0,74.5,30.00,ESE,104,2.3,2.3,71,0.00,CLR,,0.00,WeatherDisplay:10.37,2013-08-23 15:12:00,
2013-08-23 10:17:00,85.3,74.0,30.00,ESE,105,2.3,2.3,69,0.00,CLR,,0.00,WeatherDisplay:10.37,2013-08-23 15:17:00,
2013-08-23 10:22:00,86.0,73.8,30.00,SE,136,5.8,5.8,67,0.00,CLR,,0.00,WeatherDisplay:10.37,2013-08-23 15:22:00,
2013-08-23 10:27:00,86.2,73.0,30.00,SW,236,3.5,3.5,65,0.00,CLR,,0.00,WeatherDisplay:10.37,2013-08-23 15:27:00,
2013-08-23 10:32:00,86.6,74.3,30.01,ENE,76,2.3,2.3,67,0.00,CLR,,0.00,WeatherDisplay:10.37,2013-08-23 15:32:00,
2013-08-23 10:37:00,87.4,73.3,30.00,ESE,111,5.8,5.8,63,0.00,CLR,,0.00,WeatherDisplay:10.37,2013-08-23 15:37:00,
2013-08-23 10:42:00,87.5,72.9,30.01,East,82,6.9,6.9,62,0.00,CLR,,0.00,WeatherDisplay:10.37,2013-08-23 15:42:00,
2013-08-23 10:47:00,87.6,72.5,30.01,NE,41,1.2,1.2,61,0.00,CLR,,0.00,WeatherDisplay:10.37,2013-08-23 15:47:00,
2013-08-23 10:52:00,88.0,72.4,30.00,East,90,6.0,6.0,60,0.00,CLR,,0.00,WeatherDisplay:10.37,2013-08-23 15:52:00,
2013-08-23 10:57:00,87.4,71.8,30.01,ENE,62,4.6,4.6,60,0.00,CLR,,0.00,WeatherDisplay:10.37,2013-08-23 15:57:00,
2013-08-23 11:02:00,87.7,72.1,30.01,SSE,150,4.6,4.6,60,0.00,CLR,,0.00,WeatherDisplay:10.37,2013-08-23 16:02:00,
2013-08-23 11:07:00,87.8,72.7,30.01,NE,38,3.5,3.5,61,0.00,CLR,,0.00,WeatherDisplay:10.37,2013-08-23 16:07:00,
2013-08-23 11:12:00,87.9,72.3,30.01,ESE,121,8.1,8.1,60,0.00,CLR,,0.00,WeatherDisplay:10.37,2013-08-23 16:12:00,
2013-08-23 11:17:00,87.7,72.6,30.00,South,190,6.9,6.9,61,0.00,CLR,,0.00,WeatherDisplay:10.37,2013-08-23 16:17:00,
2013-08-23 11:22:00,88.0,71.4,30.00,ESE,123,4.6,4.6,58,0.00,CLR,,0.00,WeatherDisplay:10.37,2013-08-23 16:22:00,
2013-08-23 11:27:00,88.4,72.2,30.00,ENE,59,3.5,3.5,59,0.00,CLR,,0.00,WeatherDisplay:10.37,2013-08-23 16:27:00,
2013-08-23 11:32:00,89.2,72.0,30.00,East,94,6.9,6.9,57,0.00,CLR,,0.00,WeatherDisplay:10.37,2013-08-23 16:32:00,
2013-08-23 11:37:00,89.8,73.0,30.00,East,80,3.5,3.5,58,0.00,CLR,,0.00,WeatherDisplay:10.37,2013-08-23 16:37:00,
2013-08-23 11:42:00,90.1,72.3,30.00,East,81,6.9,6.9,56,0.00,CLR,,0.00,WeatherDisplay:10.37,2013-08-23 16:42:00,
2013-08-23 11:47:00,90.5,72.1,30.00,ESE,105,2.0,2.0,55,0.00,CLR,,0.00,WeatherDisplay:10.37,2013-08-23 16:47:00,
2013-08-23 11:52:00,90.2,72.4,30.00,SE,142,3.0,3.0,56,0.00,CLR,,0.00,WeatherDisplay:10.37,2013-08-23 16:52:00,
2013-08-23 11:57:00,89.5,71.7,30.00,East,86,6.9,6.9,56,0.00,CLR,,0.00,WeatherDisplay:10.37,2013-08-23 16:57:00,
2013-08-23 12:02:00,89.1,71.4,30.00,East,92,4.6,4.6,56,0.00,CLR,,0.00,WeatherDisplay:10.37,2013-08-23 17:02:00,
2013-08-23 12:07:00,89.6,71.8,30.00,East,100,6.9,6.9,56,0.00,CLR,,0.00,WeatherDisplay:10.37,2013-08-23 17:07:00,
2013-08-23 12:12:00,89.9,72.1,30.00,ESE,105,3.5,3.5,56,0.00,CLR,,0.00,WeatherDisplay:10.37,2013-08-23 17:12:00,
2013-08-23 12:17:00,89.7,71.4,30.00,ESE,121,3.5,3.5,55,0.00,CLR,,0.00,WeatherDisplay:10.37,2013-08-23 17:17:00,
2013-08-23 12:22:00,89.9,71.6,30.00,East,82,2.3,2.5,55,0.00,CLR,,0.00,WeatherDisplay:10.37,2013-08-23 17:22:00,
2013-08-23 12:27:00,90.7,71.2,29.99,ESE,113,3.5,3.5,53,0.00,CLR,,0.00,WeatherDisplay:10.37,2013-08-23 17:27:00,
2013-08-23 12:32:00,90.8,72.4,29.99,East,92,3.5,3.5,55,0.00,CLR,,0.00,WeatherDisplay:10.37,2013-08-23 17:32:00,
2013-08-23 12:37:00,91.3,71.8,29.99,East,82,1.0,1.0,53,0.00,CLR,,0.00,WeatherDisplay:10.37,2013-08-23 17:37:00,
2013-08-23 12:42:00,91.8,72.2,29.99,SE,138,2.3,2.3,53,0.00,CLR,,0.00,WeatherDisplay:10.37,2013-08-23 17:42:00,
2013-08-23 12:47:00,91.5,70.8,29.99,SSE,150,2.3,2.3,51,0.00,CLR,,0.00,WeatherDisplay:10.37,2013-08-23 17:47:00,
2013-08-23 12:52:00,92.4,71.6,29.99,East,86,6.9,6.9,51,0.00,CLR,,0.00,WeatherDisplay:10.37,2013-08-23 17:52:00,
2013-08-23 12:57:00,92.2,70.9,29.98,ENE,58,5.8,5.8,50,0.00,CLR,,0.00,WeatherDisplay:10.37,2013-08-23 17:57:00,
2013-08-23 13:02:00,92.2,72.0,29.98,East,85,6.9,6.9,52,0.00,CLR,,0.00,WeatherDisplay:10.37,2013-08-23 18:02:00,
2013-08-23 13:07:00,92.2,70.3,29.98,East,79,10.4,10.4,49,0.00,CLR,,0.00,WeatherDisplay:10.37,2013-08-23 18:07:00,
2013-08-23 13:12:00,92.9,70.9,29.98,ESE,103,9.2,9.2,49,0.00,CLR,,0.00,WeatherDisplay:10.37,2013-08-23 18:12:00,
2013-08-23 13:17:00,92.3,71.0,29.97,East,81,9.2,9.2,50,0.00,CLR,,0.00,WeatherDisplay:10.37,2013-08-23 18:17:00,
2013-08-23 13:22:00,92.1,70.2,29.97,ESE,119,9.2,9.2,49,0.00,CLR,,0.00,WeatherDisplay:10.37,2013-08-23 18:22:00,
2013-08-23 13:27:00,92.3,69.2,29.97,South,177,3.5,3.5,47,0.00,CLR,,0.00,WeatherDisplay:10.37,2013-08-23 18:27:00,
2013-08-23 13:32:00,93.0,69.8,29.97,East,82,4.6,4.6,47,0.00,CLR,,0.00,WeatherDisplay:10.37,2013-08-23 18:32:00,
2013-08-23 13:37:00,92.7,69.5,29.97,East,98,8.1,8.1,47,0.00,CLR,,0.00,WeatherDisplay:10.37,2013-08-23 18:37:00,
2013-08-23 13:42:00,92.9,70.3,29.96,ESE,122,5.8,5.8,48,0.00,CLR,,0.00,WeatherDisplay:10.37,2013-08-23 18:42:00,
2013-08-23 13:47:00,93.5,70.2,29.96,ESE,113,5.8,5.8,47,0.00,CLR,,0.00,WeatherDisplay:10.37,2013-08-23 18:47:00,
2013-08-23 13:52:00,94.1,70.2,29.96,ESE,113,9.2,9.2,46,0.00,CLR,,0.00,WeatherDisplay:10.37,2013-08-23 18:52:00,
2013-08-23 13:57:00,93.8,69.9,29.96,SE,140,9.2,9.2,46,0.00,CLR,,0.00,WeatherDisplay:10.37,2013-08-23 18:57:00,
2013-08-23 14:02:00,94.1,70.2,29.96,ENE,66,2.3,2.3,46,0.00,CLR,,0.00,WeatherDisplay:10.37,2013-08-23 19:02:00,
2013-08-23 14:07:00,94.2,68.9,29.96,ESE,103,8.1,8.1,44,0.00,CLR,,0.00,WeatherDisplay:10.37,2013-08-23 19:07:00,
2013-08-23 14:12:00,94.5,69.9,29.95,East,95,8.1,8.1,45,0.00,CLR,,0.00,WeatherDisplay:10.37,2013-08-23 19:12:00,
2013-08-23 14:17:00,94.6,70.0,29.95,East,95,4.6,4.6,45,0.00,CLR,,0.00,WeatherDisplay:10.37,2013-08-23 19:17:00,
2013-08-23 14:22:00,95.5,70.1,29.95,East,100,9.2,9.2,44,0.00,CLR,,0.00,WeatherDisplay:10.37,2013-08-23 19:22:00,
2013-08-23 14:27:00,95.6,69.5,29.95,ENE,59,2.3,2.3,43,0.00,CLR,,0.00,WeatherDisplay:10.37,2013-08-23 19:27:00,
2013-08-23 14:32:00,95.3,69.3,29.95,SE,143,3.5,3.5,43,0.00,CLR,,0.00,WeatherDisplay:10.37,2013-08-23 19:32:00,
2013-08-23 14:37:00,95.4,68.0,29.94,East,94,9.2,9.2,41,0.00,CLR,,0.00,WeatherDisplay:10.37,2013-08-23 19:37:00,
2013-08-23 14:42:00,94.9,68.9,29.94,ENE,67,3.5,3.5,43,0.00,CLR,,0.00,WeatherDisplay:10.37,2013-08-23 19:42:00,
2013-08-23 14:47:00,94.4,68.5,29.94,East,94,8.1,8.1,43,0.00,CLR,,0.00,WeatherDisplay:10.37,2013-08-23 19:47:00,
2013-08-23 14:52:00,94.4,68.5,29.93,East,93,8.1,8.1,43,0.00,CLR,,0.00,WeatherDisplay:10.37,2013-08-23 19:52:00,
2013-08-23 14:57:00,93.7,68.5,29.93,ENE,73,8.1,8.1,44,0.00,CLR,,0.00,WeatherDisplay:10.37,2013-08-23 19:57:00,
2013-08-23 15:02:00,93.9,68.0,29.93,SE,124,3.5,3.5,43,0.00,CLR,,0.00,WeatherDisplay:10.37,2013-08-23 20:02:00,
2013-08-23 15:07:00,94.3,68.4,29.93,East,92,9.2,9.2,43,0.00,CLR,,0.00,WeatherDisplay:10.37,2013-08-23 20:07:00,
2013-08-23 15:12:00,95.7,69.6,29.92,NE,49,6.9,6.9,43,0.00,CLR,,0.00,WeatherDisplay:10.37,2013-08-23 20:12:00,
2013-08-23 15:17:00,96.7,69.1,29.92,ENE,68,4.6,4.6,41,0.00,CLR,,0.00,WeatherDisplay:10.37,2013-08-23 20:17:00,
2013-08-23 15:22:00,96.5,68.9,29.92,East,81,2.3,2.3,41,0.00,CLR,,0.00,WeatherDisplay:10.37,2013-08-23 20:22:00,
2013-08-23 15:27:00,95.8,67.6,29.92,NE,40,3.5,3.5,40,0.00,CLR,,0.00,WeatherDisplay:10.37,2013-08-23 20:27:00,
2013-08-23 15:32:00,96.4,69.6,29.91,NE,54,3.5,3.5,42,0.00,CLR,,0.00,WeatherDisplay:10.37,2013-08-23 20:32:00,
2013-08-23 15:37:00,96.4,67.4,29.91,East,84,10.4,10.4,39,0.00,CLR,,0.00,WeatherDisplay:10.37,2013-08-23 20:37:00,
2013-08-23 15:42:00,95.9,67.7,29.91,ESE,107,8.1,8.1,40,0.00,CLR,,0.00,WeatherDisplay:10.37,2013-08-23 20:42:00,
2013-08-23 15:47:00,95.9,67.0,29.91,East,80,5.8,5.8,39,0.00,CLR,,0.00,WeatherDisplay:10.37,2013-08-23 20:47:00,
2013-08-23 15:52:00,96.8,67.8,29.90,ESE,118,6.9,6.9,39,0.00,CLR,,0.00,WeatherDisplay:10.37,2013-08-23 20:52:00,
2013-08-23 15:57:00,96.8,67.8,29.90,East,82,9.2,9.2,39,0.00,CLR,,0.00,WeatherDisplay:10.37,2013-08-23 20:57:00,
2013-08-23 16:02:00,97.0,67.2,29.89,ESE,105,8.1,8.1,38,0.00,CLR,,0.00,WeatherDisplay:10.37,2013-08-23 21:02:00,
2013-08-23 16:07:00,97.3,66.7,29.90,East,100,5.0,5.0,37,0.00,CLR,,0.00,WeatherDisplay:10.37,2013-08-23 21:07:00,
2013-08-23 16:12:00,97.4,67.5,29.89,East,86,4.6,4.6,38,0.00,CLR,,0.00,WeatherDisplay:10.37,2013-08-23 21:12:00,
2013-08-23 16:17:00,97.3,66.7,29.89,SSE,147,8.1,8.1,37,0.00,CLR,,0.00,WeatherDisplay:10.37,2013-08-23 21:17:00,
2013-08-23 16:22:00,97.2,67.4,29.89,East,96,5.0,5.0,38,0.00,CLR,,0.00,WeatherDisplay:10.37,2013-08-23 21:22:00,
2013-08-23 16:27:00,97.4,66.8,29.88,ESE,103,6.9,6.9,37,0.00,CLR,,0.00,WeatherDisplay:10.37,2013-08-23 21:27:00,
2013-08-23 16:32:00,97.1,67.3,29.88,ENE,58,10.4,10.4,38,0.00,CLR,,0.00,WeatherDisplay:10.37,2013-08-23 21:32:00,
2013-08-23 16:37:00,96.6,66.8,29.88,ENE,72,9.2,9.2,38,0.00,CLR,,0.00,WeatherDisplay:10.37,2013-08-23 21:37:00,
2013-08-23 16:42:00,96.3,67.3,29.88,NNE,22,8.1,8.1,39,0.00,CLR,,0.00,WeatherDisplay:10.37,2013-08-23 21:42:00,
2013-08-23 16:47:00,96.9,65.5,29.88,ENE,66,4.6,4.6,36,0.00,CLR,,0.00,WeatherDisplay:10.37,2013-08-23 21:47:00,
2013-08-23 16:52:00,96.8,66.2,29.88,ENE,73,15.0,15.0,37,0.00,CLR,,0.00,WeatherDisplay:10.37,2013-08-23 21:52:00,
2013-08-23 16:57:00,96.7,66.9,29.87,ENE,60,6.9,6.9,38,0.00,CLR,,0.00,WeatherDisplay:10.37,2013-08-23 21:57:00,
2013-08-23 17:02:00,96.5,66.0,29.88,ENE,76,11.5,11.5,37,0.00,CLR,,0.00,WeatherDisplay:10.37,2013-08-23 22:02:00,
2013-08-23 17:07:00,96.5,66.0,29.88,East,94,5.8,5.8,37,0.00,CLR,,0.00,WeatherDisplay:10.37,2013-08-23 22:07:00,
2013-08-23 17:12:00,96.9,66.3,29.87,ESE,102,9.2,9.2,37,0.00,CLR,,0.00,WeatherDisplay:10.37,2013-08-23 22:12:00,
2013-08-23 17:17:00,96.8,66.2,29.87,East,98,12.7,12.7,37,0.00,CLR,,0.00,WeatherDisplay:10.37,2013-08-23 22:17:00,
2013-08-23 17:22:00,96.4,65.9,29.87,East,86,16.1,16.1,37,0.00,CLR,,0.00,WeatherDisplay:10.37,2013-08-23 22:22:00,
2013-08-23 17:27:00,96.7,66.1,29.87,ESE,113,9.2,9.2,37,0.00,CLR,,0.00,WeatherDisplay:10.37,2013-08-23 22:27:00,
2013-08-23 17:32:00,97.0,65.6,29.87,East,86,6.0,6.0,36,0.00,CLR,,0.00,WeatherDisplay:10.37,2013-08-23 22:32:00,
2013-08-23 17:37:00,97.2,65.0,29.87,East,90,6.9,6.9,35,0.00,CLR,,0.00,WeatherDisplay:10.37,2013-08-23 22:37:00,
2013-08-23 17:42:00,97.5,65.2,29.87,ENE,70,3.5,3.5,35,0.00,CLR,,0.00,WeatherDisplay:10.37,2013-08-23 22:42:00,
2013-08-23 17:47:00,97.6,65.3,29.87,East,82,6.9,6.9,35,0.00,CLR,,0.00,WeatherDisplay:10.37,2013-08-23 22:47:00,
2013-08-23 17:52:00,96.9,64.7,29.87,East,91,10.4,10.4,35,0.00,CLR,,0.00,WeatherDisplay:10.37,2013-08-23 22:52:00,
2013-08-23 17:57:00,96.8,64.6,29.87,NE,35,3.5,3.5,35,0.00,CLR,,0.00,WeatherDisplay:10.37,2013-08-23 22:57:00,
2013-08-23 18:02:00,97.0,64.8,29.87,East,84,4.6,4.6,35,0.00,CLR,,0.00,WeatherDisplay:10.37,2013-08-23 23:02:00,
2013-08-23 18:07:00,97.3,65.1,29.87,East,94,10.4,10.4,35,0.00,CLR,,0.00,WeatherDisplay:10.37,2013-08-23 23:07:00,
2013-08-23 18:12:00,96.9,64.7,29.87,ENE,69,3.5,3.5,35,0.00,CLR,,0.00,WeatherDisplay:10.37,2013-08-23 23:12:00,
2013-08-23 18:17:00,96.7,64.5,29.87,ENE,73,8.1,8.1,35,0.00,CLR,,0.00,WeatherDisplay:10.37,2013-08-23 23:17:00,
2013-08-23 18:22:00,96.6,64.5,29.87,East,86,5.8,5.8,35,0.00,CLR,,0.00,WeatherDisplay:10.37,2013-08-23 23:22:00,
2013-08-23 18:27:00,96.4,63.5,29.86,NE,52,3.5,3.5,34,0.00,CLR,,0.00,WeatherDisplay:10.37,2013-08-23 23:27:00,
2013-08-23 18:32:00,96.1,64.8,29.86,East,83,8.1,8.1,36,0.00,CLR,,0.00,WeatherDisplay:10.37,2013-08-23 23:32:00,
2013-08-23 18:37:00,96.0,66.3,29.87,NE,43,5.8,5.8,38,0.00,CLR,,0.00,WeatherDisplay:10.37,2013-08-23 23:37:00,
2013-08-23 18:42:00,96.1,65.6,29.86,East,87,5.8,5.8,37,0.00,CLR,,0.00,WeatherDisplay:10.37,2013-08-23 23:42:00,
2013-08-23 18:47:00,95.8,66.1,29.86,ENE,69,8.1,8.1,38,0.00,CLR,,0.00,WeatherDisplay:10.37,2013-08-23 23:47:00,
2013-08-23 18:52:00,95.6,65.9,29.86,East,86,3.5,3.5,38,0.00,CLR,,0.00,WeatherDisplay:10.37,2013-08-23 23:52:00,
2013-08-23 18:57:00,95.5,65.9,29.86,East,79,6.0,6.0,38,0.00,CLR,,0.00,WeatherDisplay:10.37,2013-08-23 23:57:00,
2013-08-23 19:02:00,95.2,66.3,29.86,ENE,61,9.2,9.2,39,0.00,CLR,,0.00,WeatherDisplay:10.37,2013-08-24 00:02:00,
2013-08-23 19:07:00,94.8,66.0,29.86,East,82,5.8,5.8,39,0.00,CLR,,0.00,WeatherDisplay:10.37,2013-08-24 00:07:00,
2013-08-23 19:12:00,94.5,66.4,29.87,East,92,8.1,8.1,40,0.00,CLR,,0.00,WeatherDisplay:10.37,2013-08-24 00:12:00,
2013-08-23 19:17:00,94.2,66.2,29.87,East,92,4.6,4.6,40,0.00,CLR,,0.00,WeatherDisplay:10.37,2013-08-24 00:17:00,
2013-08-23 19:22:00,94.0,66.7,29.87,East,79,5.8,5.8,41,0.00,CLR,,0.00,WeatherDisplay:10.37,2013-08-24 00:22:00,
2013-08-23 19:27:00,94.0,66.7,29.87,ESE,103,6.9,6.9,41,0.00,CLR,,0.00,WeatherDisplay:10.37,2013-08-24 00:27:00,
2013-08-23 19:32:00,94.1,66.8,29.88,ENE,66,6.9,6.9,41,0.00,CLR,,0.00,WeatherDisplay:10.37,2013-08-24 00:32:00,
2013-08-23 19:37:00,94.0,66.0,29.88,ENE,72,4.6,4.6,40,0.00,CLR,,0.00,WeatherDisplay:10.37,2013-08-24 00:37:00,
2013-08-23 19:42:00,93.6,65.6,29.88,ENE,65,3.5,3.5,40,0.00,CLR,,0.00,WeatherDisplay:10.37,2013-08-24 00:42:00,
2013-08-23 19:47:00,93.2,65.3,29.88,East,80,8.1,8.1,40,0.00,CLR,,0.00,WeatherDisplay:10.37,2013-08-24 00:47:00,
2013-08-23 19:52:00,92.8,65.6,29.88,East,84,4.6,4.6,41,0.00,CLR,,0.00,WeatherDisplay:10.37,2013-08-24 00:52:00,
2013-08-23 19:57:00,92.4,65.3,29.89,East,90,3.5,3.5,41,0.00,CLR,,0.00,WeatherDisplay:10.37,2013-08-24 00:57:00,
2013-08-23 20:02:00,92.0,65.6,29.89,East,86,1.2,1.2,42,0.00,CLR,,0.00,WeatherDisplay:10.37,2013-08-24 01:02:00,
2013-08-23 20:07:00,91.7,65.4,29.89,East,89,1.2,1.2,42,0.00,CLR,,0.00,WeatherDisplay:10.37,2013-08-24 01:07:00,
2013-08-23 20:12:00,91.3,65.7,29.89,East,86,1.2,0.0,43,0.00,CLR,,0.00,WeatherDisplay:10.37,2013-08-24 01:12:00,
2013-08-23 20:17:00,91.0,65.4,29.89,ESE,107,1.2,1.2,43,0.00,CLR,,0.00,WeatherDisplay:10.37,2013-08-24 01:17:00,
2013-08-23 20:22:00,90.7,65.1,29.89,East,96,1.2,1.2,43,0.00,CLR,,0.00,WeatherDisplay:10.37,2013-08-24 01:22:00,
2013-08-23 20:27:00,90.6,65.0,29.89,ESE,105,2.3,2.3,43,0.00,CLR,,0.00,WeatherDisplay:10.37,2013-08-24 01:27:00,
2013-08-23 20:32:00,90.4,65.5,29.90,ESE,103,0.0,0.0,44,0.00,CLR,,0.00,WeatherDisplay:10.37,2013-08-24 01:32:00,
2013-08-23 20:37:00,90.1,65.2,29.90,ESE,103,1.2,0.0,44,0.00,CLR,,0.00,WeatherDisplay:10.37,2013-08-24 01:37:00,
2013-08-23 20:42:00,89.9,65.7,29.90,East,81,3.5,3.5,45,0.00,CLR,,0.00,WeatherDisplay:10.37,2013-08-24 01:42:00,
2013-08-23 20:47:00,89.5,67.2,29.90,East,87,8.1,8.1,48,0.00,CLR,,0.00,WeatherDisplay:10.37,2013-08-24 01:47:00,
2013-08-23 20:52:00,89.4,67.7,29.90,East,96,9.2,9.2,49,0.00,CLR,,0.00,WeatherDisplay:10.37,2013-08-24 01:52:00,
2013-08-23 20:57:00,89.2,68.1,29.90,East,96,8.1,8.1,50,0.00,CLR,,0.00,WeatherDisplay:10.37,2013-08-24 01:57:00,
2013-08-23 21:02:00,89.1,68.0,29.90,East,93,9.2,9.2,50,0.00,CLR,,0.00,WeatherDisplay:10.37,2013-08-24 02:02:00,
2013-08-23 21:07:00,89.0,68.5,29.90,ESE,109,8.1,8.1,51,0.00,CLR,,0.00,WeatherDisplay:10.37,2013-08-24 02:07:00,
2013-08-23 21:12:00,88.8,68.9,29.91,SE,132,8.1,8.1,52,0.00,CLR,,0.00,WeatherDisplay:10.37,2013-08-24 02:12:00,
2013-08-23 21:17:00,88.6,68.7,29.91,ESE,113,8.1,8.1,52,0.00,CLR,,0.00,WeatherDisplay:10.37,2013-08-24 02:17:00,
2013-08-23 21:22:00,88.4,69.1,29.91,East,80,5.8,5.8,53,0.00,CLR,,0.00,WeatherDisplay:10.37,2013-08-24 02:22:00,
2013-08-23 21:27:00,88.3,69.0,29.91,ESE,112,6.9,6.9,53,0.00,CLR,,0.00,WeatherDisplay:10.37,2013-08-24 02:27:00,
2013-08-23 21:32:00,88.1,69.4,29.92,ESE,121,8.1,8.1,54,0.00,CLR,,0.00,WeatherDisplay:10.37,2013-08-24 02:32:00,
2013-08-23 21:37:00,88.0,69.3,29.92,East,97,6.9,6.9,54,0.00,CLR,,0.00,WeatherDisplay:10.37,2013-08-24 02:37:00,
2013-08-23 21:42:00,87.9,69.2,29.92,East,82,9.2,9.2,54,0.00,CLR,,0.00,WeatherDisplay:10.37,2013-08-24 02:42:00,
2013-08-23 21:47:00,87.7,69.0,29.92,SE,146,5.8,5.8,54,0.00,CLR,,0.00,WeatherDisplay:10.37,2013-08-24 02:47:00,
2013-08-23 21:52:00,87.6,68.9,29.93,East,84,8.1,8.1,54,0.00,CLR,,0.00,WeatherDisplay:10.37,2013-08-24 02:52:00,
2013-08-23 21:57:00,87.5,69.3,29.93,ESE,104,6.9,6.9,55,0.00,CLR,,0.00,WeatherDisplay:10.37,2013-08-24 02:57:00,
2013-08-23 22:02:00,87.4,69.3,29.93,East,94,6.9,6.9,55,0.00,CLR,,0.00,WeatherDisplay:10.37,2013-08-24 03:02:00,
2013-08-23 22:07:00,87.2,69.1,29.93,East,100,8.1,8.1,55,0.00,CLR,,0.00,WeatherDisplay:10.37,2013-08-24 03:07:00,
2013-08-23 22:12:00,87.1,69.0,29.93,ESE,108,6.9,6.9,55,0.00,CLR,,0.00,WeatherDisplay:10.37,2013-08-24 03:12:00,
2013-08-23 22:17:00,86.8,69.2,29.93,ESE,109,8.1,8.1,56,0.00,CLR,,0.00,WeatherDisplay:10.37,2013-08-24 03:17:00,
2013-08-23 22:22:00,86.6,69.0,29.93,East,97,6.9,6.9,56,0.00,CLR,,0.00,WeatherDisplay:10.37,2013-08-24 03:22:00,
2013-08-23 22:27:00,86.4,69.4,29.93,ESE,121,5.8,5.8,57,0.00,CLR,,0.00,WeatherDisplay:10.37,2013-08-24 03:27:00,
2013-08-23 22:32:00,86.2,69.2,29.93,East,84,4.6,4.6,57,0.00,CLR,,0.00,WeatherDisplay:10.37,2013-08-24 03:32:00,
2013-08-23 22:37:00,85.9,69.4,29.93,ESE,113,4.6,4.6,58,0.00,CLR,,0.00,WeatherDisplay:10.37,2013-08-24 03:37:00,
2013-08-23 22:42:00,85.7,69.2,29.93,East,84,6.9,6.9,58,0.00,CLR,,0.00,WeatherDisplay:10.37,2013-08-24 03:42:00,
2013-08-23 22:47:00,85.6,69.6,29.94,East,82,6.9,6.9,59,0.00,CLR,,0.00,WeatherDisplay:10.37,2013-08-24 03:47:00,
2013-08-23 22:52:00,85.4,69.4,29.94,East,94,3.5,3.5,59,0.00,CLR,,0.00,WeatherDisplay:10.37,2013-08-24 03:52:00,
2013-08-23 22:57:00,85.2,69.7,29.94,ESE,109,4.6,4.6,60,0.00,CLR,,0.00,WeatherDisplay:10.37,2013-08-24 03:57:00,
2013-08-23 23:01:00,85.0,69.6,29.94,East,84,6.9,6.9,60,0.00,CLR,,0.00,WeatherDisplay:10.37,2013-08-24 04:01:00,
2013-08-23 23:06:00,84.8,69.9,29.94,ESE,112,3.5,3.5,61,0.00,CLR,,0.00,WeatherDisplay:10.37,2013-08-24 04:06:00,
2013-08-23 23:11:00,84.5,69.6,29.94,ESE,122,3.5,3.5,61,0.00,CLR,,0.00,WeatherDisplay:10.37,2013-08-24 04:11:00,
2013-08-23 23:16:00,84.2,69.8,29.94,SE,145,4.6,4.6,62,0.00,CLR,,0.00,WeatherDisplay:10.37,2013-08-24 04:16:00,
2013-08-23 23:21:00,84.0,69.6,29.94,SE,137,3.5,3.5,62,0.00,CLR,,0.00,WeatherDisplay:10.37,2013-08-24 04:21:00,
2013-08-23 23:26:00,83.8,69.9,29.94,SE,144,3.5,3.5,63,0.00,CLR,,0.00,WeatherDisplay:10.37,2013-08-24 04:26:00,
2013-08-23 23:31:00,83.6,69.7,29.94,SE,138,2.3,2.3,63,0.00,CLR,,0.00,WeatherDisplay:10.37,2013-08-24 04:31:00,
2013-08-23 23:36:00,83.3,69.8,29.94,SE,129,3.5,3.5,64,0.00,CLR,,0.00,WeatherDisplay:10.37,2013-08-24 04:36:00,
2013-08-23 23:41:00,83.1,69.7,29.94,SE,136,3.5,3.5,64,0.00,CLR,,0.00,WeatherDisplay:10.37,2013-08-24 04:41:00,
2013-08-23 23:46:00,82.9,69.9,29.94,SSW,195,3.5,3.5,65,0.00,CLR,,0.00,WeatherDisplay:10.37,2013-08-24 04:46:00,
2013-08-23 23:51:00,82.8,70.3,29.94,ESE,109,5.8,5.8,66,0.00,CLR,,0.00,WeatherDisplay:10.37,2013-08-24 04:51:00,
2013-08-23 23:56:00,82.8,70.7,29.95,ESE,109,5.8,5.8,67,0.00,CLR,,0.00,WeatherDisplay:10.37,2013-08-24 04:56:00,